Flag for China Weather past 2 weeks in Langfang, Hebei, China

30 °F

Ice fog.

Feels Like: 30 °F
Forecast: 26 / 35 °F
Wind: 1 mph from North

Location: Beijing Airport

Current Time: Dec 1, 2015 at 5:24:53 AM

Latest Report: Dec 1, 2015 at 4:30 AM

Visibility: 1 mi

Pressure: 30.12 "Hg

Humidity: 100%

Dew point: 30 °F

Location of LangfangLocation

Historic Weather in Langfang — Graph


Langfang temperature yesterday

Maximum temperature yesterday: 34 °F (at 2:00 PM)
Minimum temperature yesterday: 23 °F (at 1:30 AM)
Average temperature yesterday: 28 °F

Past Weeks' High & Low Weather Summary

High50 °F (Nov 17, 1:00 PM)100% (Nov 16, 5:00 AM)30.80 "Hg (Nov 16, 5:00 AM)
Low10 °F (Nov 26, 6:00 AM)35% (Nov 17, 1:00 PM)30.09 "Hg (Nov 16, 2:00 PM)
Average30 °F80%30.41 "Hg
* Reported Nov 16 4:00 AM — Dec 1 4:00 AM, Langfang, Weather by CustomWeather, © 2015

Note: Actual official high and low records may vary slightly from our data, if they occured in-between our weather recording intervals... More about our weather records


Langfang weather history for previous 24 hours

Time TempWeatherWind HumidityBarometerVisibility
4:00 AM
Tue, Dec 1
30 °FIce fog.3 mph100%30.12 "Hg1 mi
3:30 AM30 °FIce fog.1 mph93%30.15 "Hg1 mi
3:00 AM30 °FIce fog.1 mph93%30.15 "Hg1 mi
2:30 AM30 °FIce fog.1 mph93%30.18 "Hg1 mi
2:00 AM30 °FIce fog.1 mph93%30.18 "Hg1 mi
1:30 AM30 °FIce fog.3 mph93%30.18 "Hg1 mi
1:00 AM30 °FIce fog.1 mph93%30.18 "Hg1 mi
12:30 AM30 °FIce fog.1 mph93%30.18 "Hg1 mi
12:00 AM30 °FIce fog.1 mph93%30.21 "Hg1 mi
11:30 PM
Mon, Nov 30
30 °FIce fog.1 mph93%30.21 "Hg1 mi
11:00 PM30 °FIce fog.No wind93%30.21 "Hg1 mi
10:30 PM28 °FIce fog.No wind100%30.21 "Hg1 mi
10:00 PM28 °FIce fog.1 mph93%30.21 "Hg1 mi
9:30 PM27 °FIce fog.1 mph100%30.21 "Hg1 mi
9:00 PM30 °FIce fog.No wind93%30.24 "Hg1 mi
8:30 PM28 °FIce fog.No wind100%30.21 "Hg1 mi
8:00 PM30 °FIce fog.1 mph93%30.21 "Hg1 mi
7:30 PM30 °FIce fog.1 mph93%30.21 "Hg1 mi
7:00 PM28 °FIce fog.No wind100%30.21 "Hg1 mi
6:30 PM30 °FIce fog.1 mph93%30.21 "Hg1 mi
6:00 PM30 °FIce fog.1 mph93%30.21 "Hg1 mi
5:30 PM30 °FIce fog.1 mph93%30.21 "Hg1 mi
5:00 PM30 °FIce fog.1 mph93%30.21 "Hg1 mi
4:30 PM32 °FFog.1 mph87%30.21 "Hg1 mi
4:00 PM32 °FFog.1 mph93%30.21 "Hg1 mi
3:30 PM34 °FFog.3 mph87%30.21 "Hg1 mi
3:00 PM34 °FFog.1 mph87%30.21 "Hg1 mi
2:30 PM34 °FFog.1 mph87%30.21 "Hg1 mi
2:00 PM34 °FFog.1 mph87%30.24 "Hg1 mi
1:30 PM32 °FFog.3 mph93%30.24 "Hg1 mi
1:00 PM32 °FFog.3 mph87%30.27 "Hg1 mi
12:30 PM32 °FFog.3 mph87%30.27 "Hg1 mi
11:30 AM30 °FIce fog.3 mph93%30.30 "Hg1 mi
11:00 AM30 °FIce fog.1 mph93%30.33 "Hg1 mi
10:30 AM28 °FIce fog.1 mph100%30.33 "Hg1 mi
10:00 AM28 °FIce fog.3 mph93%30.33 "Hg1 mi
9:30 AM28 °FIce fog.1 mph93%30.33 "Hg1 mi
8:30 AM27 °FIce fog.3 mph100%30.33 "Hg1 mi
8:00 AM25 °FIce fog.3 mph93%30.33 "Hg1 mi
7:30 AM25 °FIce fog.1 mph100%30.30 "Hg1 mi
7:00 AM23 °FIce fog.3 mph100%30.30 "Hg2 mi
6:30 AM23 °FIce fog.3 mph93%30.30 "Hg3 mi
6:00 AM25 °FClear.1 mph93%30.30 "Hg4 mi
5:30 AM25 °FClear.1 mph93%30.30 "Hg5 mi
5:00 AM23 °FClear.1 mph93%30.30 "Hg10 mi
Weather by CustomWeather, © 2015

See weather overviewHow to use our weather pages